Regional Weather Roundup
Issued by NWS

Home | Current Version | Previous Version | Graphics & Text | Print | Product List | Glossary On
Versions: 1 2 3 4 5 6 7 8 9 10 11 12 13 14 15 16 17 18 19 20 21 22 23 24 25 26 27 28 29 30 31 32 33 34 35 36 37 38 39 40 41 42 43 44 45 46 47 48 49 50
000
ASUS43 KLOT 300909
RWRIL

ILLINOIS REGIONAL WEATHER ROUNDUP
NATIONAL WEATHER SERVICE CHICAGO/ROMEOVILLE IL
400 AM CDT SAT JUL 30 2016

NOTE: "FAIR" INDICATES FEW OR NO CLOUDS BELOW 12,000 FEET WITH NO
SIGNIFICANT WEATHER AND/OR OBSTRUCTIONS TO VISIBILITY.

* THESE STATIONS ARE NOT UNDER NWS QUALITY CONTROL. THEY ALSO MAY NOT
  REPORT WEATHER SUCH AS PRECIPITATION OR FOG.

ILZ001-002-007-009-015-016-024-301000-
NORTHWEST ILLINOIS

CITY           SKY/WX    TMP DP  RH WIND       PRES   REMARKS
MOLINE         CLOUDY    71  65  81 NE7       29.94S
STERLING*      PTCLDY    67  66  97 N3        29.95S
SAVANNA*       CLOUDY    66  64  93 N3        29.96S
$$

ILZ003-004-008-010-011-017-018-301000-
NORTH CENTRAL ILLINOIS

CITY           SKY/WX    TMP DP  RH WIND       PRES   REMARKS
ROCKFORD       CLOUDY    68  65  90 N6        29.97R
FREEPORT*      CLOUDY    65  64  96 N3        29.99R
ROCHELLE*      CLOUDY    65  65  99 NE3       29.95S FOG
DE KALB*       MOCLDY    66  65  97 N5        29.96S FOG
$$

ILZ005-006-012>014-019>023-301000-
NORTHEAST ILLINOIS

CITY           SKY/WX    TMP DP  RH WIND       PRES   REMARKS
CHICAGO-OHARE  MOCLDY    71  66  84 NE9       29.92F
CHICAGO-MIDWAY CLOUDY    73  67  81 NE7       29.92S
AURORA         CLEAR     68  65  90 N6        29.93F
LANSING*       CLEAR     68  65  92 CALM      29.92S
JOLIET*        CLOUDY    71  69  94 N3        29.92S
WAUKEGAN       CLOUDY    68  64  87 NE10      29.95S
DUPAGE AIRPORT CLEAR     66  64  93 N6        29.93F
KANKAKEE*      FOG       67  66  97 CALM      29.92S VSB<1/4
WHEELING       CLOUDY    71  65  81 NE9       29.95S
MORRIS*        PTCLDY    67  66  96 CALM      29.91S FOG
ROMEOVILLE*    CLOUDY    68  65  90 N5        29.92F
NORTHERLY ISL    N/A     72  67  84 NE6         N/A
$$

LMZ740>746-301000-
SOUTHERN LAKE MICHIGAN

STATION/POSITION SKY/WX   TEMP    WIND        PRES    VSBY  WAVE
                          AIR SEA DIR/SP/G                  HT/PER
                          (F)     (DEG/KT/KT) (MB)    (MI)  (FT/S)
SOUTHERN BUOY              68 73   60/ 17/ 21 1014.0R         4/ 5
WILMETTE HARBOR            72 71   80/ 14/ 17   N/A           4/ 5
HARRISON CRIB              73      60/  8/  9   N/A
BURNHAM HARBOR             72      30/  6/  8   N/A
CALUMET HARBOR             72      30/  3/  4 1012.7F
BURNS HARBOR               68      80/  5/  8 1013.9S
MICHIGAN CITY              69     100/  5/  6   N/A
MICHIGAN CITY 6N           70 76  130/ 12/ 14   N/A           2/ 5
ST. JOSEPH                 69 71   50/  8/ 10 1013.1F         2
$$

ILZ025>027-034>036-040-047-049-050-058-095>099-301000-
WEST-CENTRAL ILLINOIS

CITY           SKY/WX    TMP DP  RH WIND       PRES   REMARKS
QUINCY         CLOUDY    66  66 100 NW6       29.95F
GALESBURG*     CLOUDY    68  67  94 CALM      29.94S FOG
MACOMB*        CLOUDY    65  65  99 CALM      29.96F FOG
JACKSONVILLE*  CLEAR     64  62  96 W5        29.95R
PITTSFIELD*    CLEAR     66  65  95 W3        29.96S
$$

ILZ028>032-037-038-041>044-048-051>054-059>061-301000-
CENTRAL ILLINOIS

CITY           SKY/WX    TMP DP  RH WIND       PRES   REMARKS
BLOOMINGTON    FOG       66  66 100 CALM      29.94R VSB 3/4
DECATUR        MOCLDY    69  65  86 W5        29.93S
PEORIA         CLOUDY    71  69  93 CALM      29.93S
LACON*         CLOUDY    68  67  95 CALM      29.93S FOG
LINCOLN*       CLEAR     67  66  96 CALM      29.93S
SPRINGFIELD    CLEAR     66  63  90 W7        29.94S
TAYLORVILLE    CLEAR     65  64  99 MISG      29.94S
$$

ILZ033-039-045-046-055>057-062-063-301000-
EAST-CENTRAL ILLINOIS

CITY           SKY/WX    TMP DP  RH WIND       PRES   REMARKS
CHAMPAIGN      CLEAR     64  63  96 SW3       29.93S
MATTOON        CLEAR     68  65  90 W5        29.92S
PARIS*         CLEAR     66  66  99 CALM      29.93S
$$

ILZ079-100>102-301000-
SOUTHWEST ILLINOIS

CITY           SKY/WX    TMP DP  RH WIND       PRES   REMARKS
ALTON          CLOUDY    69  67  95 CALM      29.95S
BELLEVILLE     CLEAR     71  71 100 CALM      29.93S
CAHOKIA*       CLEAR     71  68  90 CALM      29.94S
SPARTA*        MOCLDY    69  69  99 CALM      29.95F
$$

ILZ064>066-069>071-074>076-080>082-084>086-088>090-092>094-301000-
SOUTH-CENTRAL ILLINOIS

CITY           SKY/WX    TMP DP  RH WIND       PRES   REMARKS
CARBONDALE     MOCLDY    70  68  93 NW3       29.93S
CAIRO*         MOCLDY    70  70 100 CALM      29.94F
EFFINGHAM*     CLOUDY    68  68 100 CALM      29.95S
MARION         MOCLDY    72  70  94 CALM      29.93F
MT. VERNON     CLOUDY    72  66  83 W3        29.94R
CENTRALIA*     CLEAR     71  71 100 W3        29.93S FOG
SALEM*         MOCLDY    72  70  94 CALM      29.93S
METROPOLIS*    CLEAR     70  70  98 CALM      29.95F FOG
$$

ILZ067-068-072-073-078-083-087-091-301000-
SOUTHEAST ILLINOIS

CITY           SKY/WX    TMP DP  RH WIND       PRES   REMARKS
LAWRENCEVILLE  CLOUDY    71  69  93 CALM        N/A
FLORA*         CLOUDY    74  71  91 NW6       29.93S
FAIRFIELD*     CLOUDY    73  73 100 CALM      29.92R FOG
HARRISBURG*    PTCLDY    72  72 100 CALM      29.93F
ROBINSON*      PTCLDY    65  65  99 CALM      29.93S
CARMI*         PTCLDY    73  73 100 CALM      29.92S
$$

ABBREVIATIONS USED IN REMARKS
   TC - TEMPERATURE IN CELSIUS
  WCI - WIND CHILL INDEX
   HX - HEAT INDEX
  VSB - VISIBILITY
$$





USA.gov is the U.S. government's official web portal to all federal, state and local government web resources and services.